West Palm Beach, FL

1:06 AM EST on November 18, 2019 (GMT -0500)
Palm Beach International

Weather History for KPBI - June, 2019

Change the Weather History Date:

Friday, June 7, 2019

  Actual Average Record
Temperature  
Mean Temperature 85 °F 81 °F  
Max Temperature 92 °F 88 °F 94 °F (1981)
Min Temperature 77 °F 74 °F 65 °F (1926)
Degree Days  
Heating Degree Days 0 0  
Month to date heating degree days 0 0  
Since 1 June heating degree days 0 0  
Since 1 July heating degree days 144 233  
Cooling Degree Days 20 16  
Month to date cooling degree days 140 111  
Year to date cooling degree days 1541 1220  
Since 1 June cooling degree days 140 111  
Growing Degree Days 34 (Base 50)    
Moisture  
Dew Point 73 °F    
Average Humidity 67    
Maximum Humidity 85    
Minimum Humidity 49    
Precipitation  
Precipitation 0.31 in 0.27 in 3.73 in (1988)
Month to date precipitation 1.75 1.87  
Year to date precipitation 22.76 20.58  
Snow  
Snow 0.00 in - - ()
Month to date snowfall 0.0  
Since 1 June snowfall 0.0  
Since 1 July snowfall 0.0  
Snow Depth 0.00 in    
Sea Level Pressure  
Sea Level Pressure 29.90 in    
Wind  
Wind Speed 6 mph (South)    
Max Wind Speed 20 mph    
Max Gust Speed 25 mph    
Visibility 9 miles    
Events Rain , Thunderstorm    
T = Trace of Precipitation, MM = Missing Value Source: NWS Daily Summary

Daily Weather History Graph

Daily Weather History Graph

Search for Another Location

Airport or City:

Astronomy

Jun. 07, 2019 Rise Set
Actual Time 6:26 AM EDT 8:12 PM EDT
Civil Twilight 6:00 AM EDT 8:38 PM EDT
Nautical Twilight 5:28 AM EDT 9:09 PM EDT
Astronomical Twilight 4:55 AM EDT 9:42 PM EDT
Moon 10:35 AM EDT (6/7) No Moon Set
Length of Visible Light 14h 38m
Length of Day
13h 45m
Waxing Crescent, 22% of the Moon is Illuminated
Jun 7
Waxing Crescent
Jun 10
First Quarter
Jun 17
Full
Jun 25
Last Quarter
Jul 2
New

Hourly Weather History & Observations

Time (EDT) Temp. Heat Index Dew Point Humidity Pressure Visibility Wind Dir Wind Speed Gust Speed Precip Events Conditions
12:53 AM 82.0 °F 87.9 °F 73.9 °F 76% 29.93 in 10.0 mi SSE 6.9 mph - N/A   Mostly Cloudy
1:53 AM 82.0 °F 88.6 °F 75.0 °F 79% 29.91 in 10.0 mi South 5.8 mph - N/A   Mostly Cloudy
2:53 AM 82.0 °F 87.9 °F 73.9 °F 76% 29.89 in 10.0 mi SSE 5.8 mph - N/A   Mostly Cloudy
3:53 AM 82.0 °F 87.9 °F 73.9 °F 76% 29.89 in 10.0 mi SSE 8.1 mph - N/A   Mostly Cloudy
4:53 AM 82.0 °F 86.7 °F 72.0 °F 71% 29.89 in 10.0 mi SSE 6.9 mph - N/A   Mostly Cloudy
5:53 AM 82.0 °F 87.4 °F 73.0 °F 74% 29.90 in 10.0 mi South 5.8 mph - N/A   Mostly Cloudy
6:53 AM 82.0 °F 87.4 °F 73.0 °F 74% 29.91 in 10.0 mi South 5.8 mph - N/A   Mostly Cloudy
7:53 AM 82.9 °F 88.8 °F 73.0 °F 72% 29.93 in 10.0 mi SSW 3.5 mph - N/A   Mostly Cloudy
8:53 AM 84.0 °F 90.2 °F 73.0 °F 69% 29.93 in 10.0 mi SSW 6.9 mph - N/A   Mostly Cloudy
9:53 AM 86.0 °F 93.8 °F 73.9 °F 67% 29.93 in 10.0 mi SW 10.4 mph - N/A   Mostly Cloudy
10:53 AM 89.1 °F 98.0 °F 73.9 °F 61% 29.92 in 10.0 mi WSW 11.5 mph - N/A   Mostly Cloudy
11:53 AM 89.1 °F 95.0 °F 71.1 °F 55% 29.92 in 10.0 mi Variable 4.6 mph - N/A   Mostly Cloudy
12:53 PM 91.0 °F 96.6 °F 70.0 °F 50% 29.91 in 10.0 mi WSW 8.1 mph - N/A   Mostly Cloudy
1:53 PM 89.1 °F 97.0 °F 73.0 °F 59% 29.90 in 10.0 mi SE 11.5 mph - N/A   Mostly Cloudy
2:53 PM 84.0 °F 92.6 °F 75.9 °F 76% 29.89 in 10.0 mi NE 8.1 mph - 0.04 in Rain Light Rain
3:53 PM 81.0 °F 86.7 °F 75.0 °F 82% 29.89 in 10.0 mi SW 13.8 mph - 0.00 in Rain Light Rain
4:03 PM 79.0 °F - 73.9 °F 84% 29.89 in 2.5 mi South 15.0 mph - 0.03 in Rain Rain
4:17 PM 80.1 °F 83.6 °F 71.1 °F 74% 29.89 in 6.0 mi SSW 4.6 mph - 0.08 in Rain Light Rain
4:19 PM 80.1 °F 83.6 °F 71.1 °F 74% 29.89 in 8.0 mi SSW 4.6 mph - 0.08 in Rain , Thunderstorm Light Thunderstorms and Rain
4:47 PM 80.6 °F 86.2 °F 75.2 °F 84% 29.88 in 10.0 mi NNE 5.8 mph - 0.09 in Rain Light Rain
4:53 PM 81.0 °F 86.7 °F 75.0 °F 82% 29.89 in 10.0 mi NE 3.5 mph - 0.09 in Rain Light Rain
5:42 PM 77.0 °F - 73.0 °F 88% 29.90 in 4.0 mi SSW 12.7 mph 25.3 mph 0.03 in Rain , Thunderstorm Thunderstorms and Rain
5:43 PM 77.0 °F - 73.0 °F 88% 29.90 in 4.0 mi SSW 9.2 mph 25.3 mph 0.03 in Rain , Thunderstorm Thunderstorms and Rain
5:53 PM 77.0 °F - 72.0 °F 84% 29.88 in 4.0 mi South 11.5 mph - 0.09 in Rain , Thunderstorm Thunderstorms and Rain
6:08 PM 77.0 °F - 72.0 °F 84% 29.88 in 9.0 mi South 6.9 mph - 0.04 in Rain Light Rain
6:53 PM 78.1 °F - 73.0 °F 84% 29.89 in 10.0 mi SSW 6.9 mph - 0.05 in   Mostly Cloudy
7:53 PM 78.1 °F - 73.0 °F 84% 29.90 in 10.0 mi SSE 4.6 mph - 0.00 in Rain Light Rain
8:53 PM 78.1 °F - 73.0 °F 84% 29.90 in 10.0 mi SSW 3.5 mph - 0.00 in   Mostly Cloudy
9:53 PM 78.1 °F - 73.0 °F 84% 29.92 in 10.0 mi South 4.6 mph - N/A   Mostly Cloudy
10:53 PM 78.1 °F - 73.0 °F 84% 29.92 in 10.0 mi Calm Calm - N/A   Mostly Cloudy
11:53 PM 78.1 °F - 73.9 °F 87% 29.93 in 10.0 mi Calm Calm - N/A   Mostly Cloudy